This is the latest recevied weather packets stored in our database for station/object AI5KP-13. If no packets are shown the sender has not sent any weather packets the latest 10 day(s).
| Time | Temp. | Humidity | Pressure | Rain* | Wind** | Luminosity | Snow |
|---|---|---|---|---|---|---|---|
| 1777948577 | 20.56° C | 68% | 1006.3 hPa | 0 mm | - | 0 W/m² | - |
| 1777948275 | 20° C | 69% | 1006.5 hPa | 0 mm | - | 0 W/m² | - |
| 1777947972 | 20.56° C | 69% | 1006.2 hPa | 0 mm | - | 0 W/m² | - |
| 1777947669 | 20.56° C | 69% | 1006.2 hPa | 0 mm | - | 0 W/m² | - |
| 1777947365 | 20.56° C | 68% | 1006.2 hPa | 0 mm | - | 0 W/m² | - |
| 1777947062 | 20.56° C | 68% | 1006 hPa | 0 mm | - | 0 W/m² | - |
| 1777946762 | 20.56° C | 67% | 1005.9 hPa | 0 mm | - | 0 W/m² | - |
| 1777946459 | 20.56° C | 67% | 1005.9 hPa | 0 mm | - | 0 W/m² | - |
| 1777946156 | 20.56° C | 67% | 1006 hPa | 0 mm | - | 0 W/m² | - |
| 1777945853 | 21.11° C | 67% | 1005.9 hPa | 0 mm | - | 0 W/m² | - |
| 1777945549 | 21.11° C | 66% | 1005.9 hPa | 0 mm | - | 0 W/m² | - |
| 1777945247 | 21.11° C | 66% | 1005.9 hPa | 0 mm | - | 0 W/m² | - |
| 1777944944 | 21.11° C | 67% | 1005.8 hPa | 0 mm | - | 0 W/m² | - |
| 1777944641 | 21.11° C | 66% | 1005.8 hPa | 0 mm | - | 0 W/m² | - |
| 1777944339 | 21.11° C | 66% | 1005.6 hPa | 0 mm | - | 0 W/m² | - |
| 1777944036 | 21.11° C | 66% | 1005.4 hPa | 0 mm | - | 0 W/m² | - |
| 1777943731 | 21.11° C | 66% | 1005.4 hPa | 0 mm | - | 1 W/m² | - |
| 1777943429 | 21.67° C | 65% | 1005.3 hPa | 0 mm | - | 1 W/m² | - |
| 1777943124 | 21.67° C | 64% | 1005.1 hPa | 0 mm | - | 2 W/m² | - |
| 1777942821 | 21.67° C | 63% | 1005.2 hPa | 0 mm | - | 4 W/m² | - |
| 1777942517 | 21.67° C | 63% | 1005.1 hPa | 0 mm | - | 6 W/m² | - |
| 1777942215 | 21.67° C | 63% | 1005.1 hPa | 0 mm | - | 8 W/m² | - |
| 1777941912 | 22.22° C | 63% | 1005.1 hPa | 0 mm | - | 13 W/m² | - |
| 1777941609 | 22.22° C | 62% | 1005.1 hPa | 0 mm | - | 18 W/m² | - |
| 1777941306 | 22.22° C | 62% | 1005.1 hPa | 0 mm | - | 21 W/m² | - |
* Rain latest hour (hover to see other rain measurements)
** Current wind speed in m/s (hover to see current wind gust speed)